[[{"header":{"parameterUnit":"m.s-1","parameterCategory":1,"la1":30.2991,"la2":30.254,"lo1":-89.0895,"lo2":-89.0444,"dy":0.0017,"dx":0.0017,"nx":28,"ny":28,"refTime":"2025-03-13T21:00:00:Z","depth":0,"parameterNumber":2,"parameterNumberName":"U-component_of_WINDS"},"data":[0,0,0,0,0,0,0,0,0,0,0,0,0,0,0,0,0,0,0,0,0,0,0,0,0,0,0,0,0,0,0,0,0,0,0,0,0,0,0,0,0,0,0,0,0,0,0,0,0,0,0,0,0,0,0,0,0,0,-3.2277,-3.2278,0,-3.2372,-3.2373,-3.2374,-3.243,-3.243,-3.243,-3.243,-3.2524,-3.2526,-3.2528,0,0,0,0,0,0,0,0,0,0,0,0,0,-3.2138,-3.214,-3.2277,-3.2278,-3.2279,-3.2372,-3.2373,-3.2375,-3.243,-3.243,-3.243,-3.243,-3.2523,-3.2525,-3.2528,0,0,0,0,0,0,0,0,0,0,0,0,0,-3.2212,-3.2141,-3.2276,-3.2318,-3.2323,-3.2372,-3.2374,-3.2375,-3.243,-3.243,-3.243,-3.2431,-3.2522,-3.2525,-3.2529,-3.2543,0,0,-3.2539,-3.254,0,0,0,0,0,0,0,0,-3.2208,-3.2217,-3.2311,-3.2315,-3.232,-3.239,-3.2359,-3.2431,-3.2429,-3.2389,-3.243,-3.2431,-3.2478,-3.2485,-3.2502,-3.2547,-3.2551,-3.2539,-3.2541,-3.2543,-3.2544,0,0,0,0,0,0,0,-3.2202,-3.2213,-3.2314,-3.2312,-3.2318,-3.233,-3.2341,-3.2373,-3.243,-3.2392,-3.2397,-3.2407,-3.2481,-3.2499,-3.2505,-3.2553,-3.2539,-3.2542,-3.2544,-3.2546,-3.2614,-3.2613,0,0,0,0,0,0,-3.2191,-3.2208,-3.2311,-3.2317,-3.2264,-3.2332,-3.2345,-3.2367,-3.243,-3.244,-3.2407,-3.241,-3.2493,-3.2501,-3.2508,-3.2529,-3.2543,-3.2546,-3.2548,-3.2614,-3.2614,-3.2613,0,0,0,0,0,0,-3.2188,-3.22,-3.2308,-3.2264,-3.2279,-3.2335,-3.2359,-3.2369,-3.2387,-3.2441,-3.2451,-3.2415,-3.2494,-3.2504,-3.2534,-3.2533,-3.2547,-3.2551,-3.2614,-3.2614,-3.2613,-3.2571,0,0,0,0,0,0,-3.2184,-3.2198,-3.2205,-3.2264,-3.2281,-3.2333,-3.2359,-3.237,-3.2393,-3.2397,-3.2452,-3.2461,-3.2495,-3.2529,-3.2538,-3.2538,-3.2553,-3.2614,-3.2614,-3.2614,-3.2573,-3.2569,-3.2566,0,0,0,0,0,-3.2179,-3.2189,-3.2206,-3.2218,-3.2291,-3.2333,-3.2342,-3.2382,-3.2393,-3.24,-3.2435,-3.2459,-3.2532,-3.2531,-3.2542,-3.2543,-3.2615,-3.2614,-3.2614,-3.2574,-3.257,-3.2566,0,0,0,0,0,0,-3.2127,-3.2197,-3.2217,-3.2246,-3.2283,-3.2342,-3.2352,-3.2377,-3.241,-3.2413,-3.246,-3.2471,-3.2497,-3.2523,-3.2521,-3.256,-3.2576,-3.2577,-3.2542,-3.2539,-3.2536,-3.2528,-3.2556,0,0,0,0,0,-3.2119,-3.2149,-3.2208,-3.2228,-3.2246,-3.2295,-3.2315,-3.2343,-3.2383,-3.2398,-3.2436,-3.2472,-3.2503,-3.2522,-3.2554,-3.2577,-3.2589,-3.2583,-3.258,-3.2577,-3.2577,-3.2591,-3.2589,-3.2611,-3.2612,-3.2612,0,0,-3.2103,-3.2145,-3.2161,-3.2219,-3.2251,-3.2279,-3.2308,-3.2337,-3.2358,-3.2402,-3.2434,-3.2462,-3.2506,-3.2532,-3.2546,-3.2555,-3.2574,-3.2576,-3.2573,-3.2576,-3.259,-3.2588,-3.2586,-3.2611,-3.2611,-3.2611,0,0,-3.2088,-3.2123,-3.2144,-3.2176,-3.2225,-3.2258,-3.2262,-3.2318,-3.2339,-3.2372,-3.2406,-3.243,-3.2483,-3.2513,-3.2535,-3.2531,-3.2555,-3.254,-3.2523,-3.2536,-3.2534,-3.2532,-3.2531,-3.2529,-3.254,-3.254,-3.254,0,-3.2062,-3.2107,-3.2151,-3.2178,-3.2202,-3.2245,-3.2266,-3.2294,-3.235,-3.2365,-3.2375,-3.2442,-3.2475,-3.2509,-3.2508,-3.2524,-3.253,-3.2534,-3.2531,-3.253,-3.2529,-3.2528,-3.2527,-3.2538,-3.2539,-3.2539,-3.2539,0,-3.2072,-3.2102,-3.2113,-3.2167,-3.2193,-3.2216,-3.2263,-3.2283,-3.2308,-3.234,-3.2372,-3.2413,-3.2453,-3.2463,-3.2488,-3.2501,-3.2505,-3.2522,-3.2538,-3.2524,-3.2524,-3.2524,-3.2535,-3.2536,-3.2537,-3.2537,0,0,-3.2027,-3.2106,-3.2109,-3.2134,-3.2191,-3.2215,-3.224,-3.2281,-3.2297,-3.2334,-3.2355,-3.2399,-3.2416,-3.244,-3.2469,-3.248,-3.2474,-3.2496,-3.2497,-3.249,-3.249,-3.2476,-3.2475,-3.249,-3.249,-3.249,-3.2486,0,-3.202,-3.2068,-3.2109,-3.2142,-3.217,-3.2211,-3.2233,-3.2269,-3.2299,-3.2326,-3.2359,-3.239,-3.2409,-3.2424,-3.2437,-3.2472,-3.2474,-3.2473,-3.2509,-3.251,-3.2496,-3.2475,-3.2461,-3.2455,-3.2486,-3.2486,-3.2486,0,-3.2018,-3.2055,-3.2091,-3.2145,-3.2158,-3.2177,-3.2218,-3.2244,-3.2286,-3.2307,-3.2335,-3.2365,-3.2392,-3.2406,-3.2443,-3.2441,-3.2458,-3.2477,-3.2478,-3.2482,-3.2497,-3.2478,-3.2454,-3.2452,-3.2486,-3.2486,-3.2486,0,-3.1981,-3.2039,-3.2068,-3.2089,-3.2152,-3.2165,-3.2191,-3.2234,-3.2256,-3.2291,-3.2306,-3.2343,-3.2364,-3.2391,-3.243,-3.2437,-3.2463,-3.248,-3.248,-3.2479,-3.2483,-3.2482,-3.246,-3.2495,-3.2495,-3.2495,-3.2495,0,-3.1968,-3.1988,-3.2053,-3.207,-3.2094,-3.214,-3.2161,-3.2192,-3.2229,-3.2252,-3.229,-3.2311,-3.2361,-3.2388,-3.2418,-3.2444,-3.2452,-3.2469,-3.2477,-3.2466,-3.2463,-3.2477,-3.2478,-3.2495,-3.2495,-3.2495,-3.2495,0,-3.1931,-3.1975,-3.2009,-3.2067,-3.2082,-3.2097,-3.2146,-3.2164,-3.2196,-3.2225,-3.2235,-3.2285,-3.2318,-3.236,-3.2406,-3.2426,-3.2449,-3.2461,-3.2435,-3.2439,-3.2436,-3.2436,-3.2422,-3.2423,-3.2457,-3.2456,-3.2456,0,-3.192,-3.1936,-3.1997,-3.2016,-3.2042,-3.2072,-3.2095,-3.2141,-3.2163,-3.2212,-3.2224,-3.226,-3.2292,-3.2343,-3.2383,-3.2418,-3.2431,-3.2424,-3.2436,-3.2424,-3.243,-3.2428,-3.243,-3.242,-3.2419,-3.2419,-3.2419,0,-3.1895,-3.1916,-3.1949,-3.1989,-3.2016,-3.2049,-3.2084,-3.2097,-3.215,-3.2173,-3.2208,-3.2233,-3.2281,-3.2316,-3.2356,-3.2383,-3.2409,-3.2415,-3.2416,-3.2404,-3.2388,-3.2397,-3.2425,-3.2414,-3.2415,-3.2415,-3.2415,-3.2415,-3.187,-3.1887,-3.1932,-3.1967,-3.1998,-3.203,-3.205,-3.2086,-3.2116,-3.216,-3.2184,-3.2218,-3.2259,-3.2317,-3.2342,-3.2369,-3.2379,-3.2381,-3.2382,-3.2381,-3.2378,-3.2385,-3.2376,-3.2377,-3.2377,-3.2377,-3.2377,0,-3.1847,-3.1878,-3.191,-3.1959,-3.1986,-3.201,-3.205,-3.2071,-3.2101,-3.2137,-3.2168,-3.2208,-3.2243,-3.2286,-3.2323,-3.2336,-3.2348,-3.2344,-3.2343,-3.2348,-3.2367,-3.2362,-3.2333,-3.2333,-3.2333,-3.2333,-3.2333,-3.2333,-3.1838,-3.1868,-3.1894,-3.1939,-3.197,-3.2005,-3.2025,-3.2055,-3.2084,-3.2128,-3.2157,-3.2185,-3.2224,-3.2265,-3.2297,-3.2309,-3.232,-3.2312,-3.2326,-3.2343,-3.2347,-3.2351,-3.2346,-3.2314,-3.2314,-3.2305,-3.2305,-3.2305]},{"header":{"parameterUnit":"m.s-1","parameterCategory":1,"la1":30.2991,"la2":30.254,"lo1":-89.0895,"lo2":-89.0444,"dy":0.0017,"dx":0.0017,"nx":28,"ny":28,"refTime":"2025-03-13T21:00:00:Z","depth":0,"parameterNumber":3,"parameterNumberName":"V-component_of_WINDS"},"data":[0,0,0,0,0,0,0,0,0,0,0,0,0,0,0,0,0,0,0,0,0,0,0,0,0,0,0,0,0,0,0,0,0,0,0,0,0,0,0,0,0,0,0,0,0,0,0,0,0,0,0,0,0,0,0,0,0,0,7.4385,7.4386,0,7.449,7.4491,7.4492,7.4454,7.4451,7.4449,7.4447,7.4547,7.4551,7.4556,0,0,0,0,0,0,0,0,0,0,0,0,0,7.4145,7.415,7.4384,7.4386,7.4387,7.4489,7.4491,7.4492,7.4454,7.4451,7.4448,7.4446,7.4545,7.4551,7.4557,0,0,0,0,0,0,0,0,0,0,0,0,0,7.4249,7.4151,7.4384,7.4381,7.4381,7.4489,7.4491,7.4493,7.4455,7.4451,7.4447,7.4444,7.4543,7.455,7.4557,7.4673,0,0,7.458,7.4583,0,0,0,0,0,0,0,0,7.4244,7.4258,7.438,7.4381,7.4382,7.4455,7.4443,7.4553,7.4455,7.4427,7.4447,7.4442,7.4519,7.4528,7.4555,7.4678,7.4682,7.458,7.4585,7.4588,7.459,0,0,0,0,0,0,0,7.4236,7.4254,7.4426,7.4382,7.4383,7.4372,7.4383,7.4464,7.4491,7.4429,7.4426,7.444,7.4518,7.4548,7.4557,7.4683,7.458,7.4587,7.4591,7.4594,7.4909,7.4912,0,0,0,0,0,0,7.423,7.4248,7.4422,7.4429,7.4303,7.4379,7.4391,7.4435,7.449,7.4495,7.4443,7.4437,7.4537,7.4548,7.456,7.4702,7.4588,7.4595,7.4599,7.4905,7.491,7.4914,0,0,0,0,0,0,7.4225,7.4246,7.4418,7.4338,7.4359,7.4387,7.4436,7.4439,7.4468,7.45,7.4504,7.4468,7.4535,7.455,7.4646,7.4704,7.4598,7.4605,7.49,7.4906,7.4912,7.4983,0,0,0,0,0,0,7.4218,7.4244,7.4289,7.4339,7.4364,7.4505,7.444,7.4444,7.4482,7.4476,7.4525,7.453,7.4533,7.4636,7.4654,7.4712,7.461,7.4895,7.4903,7.491,7.4976,7.4991,7.5004,0,0,0,0,0,7.421,7.4303,7.4292,7.4313,7.4421,7.4508,7.4522,7.4526,7.4487,7.4532,7.4553,7.4528,7.4695,7.4646,7.4666,7.4728,7.4891,7.4901,7.4909,7.497,7.4988,7.5004,0,0,0,0,0,0,7.4256,7.4309,7.4298,7.441,7.4456,7.4501,7.4558,7.4544,7.4599,7.4591,7.4591,7.4603,7.4703,7.4724,7.4669,7.4843,7.4787,7.48,7.4826,7.4844,7.4858,7.4851,7.4616,0,0,0,0,0,7.428,7.4348,7.439,7.4485,7.4509,7.453,7.4568,7.4568,7.4613,7.4631,7.4658,7.4702,7.4764,7.4805,7.4863,7.4978,7.4989,7.5031,7.5045,7.5056,7.5068,7.5133,7.5153,7.4943,7.4943,7.4943,0,0,7.4328,7.4366,7.4409,7.4496,7.453,7.46,7.4546,7.4621,7.4672,7.4641,7.4736,7.4758,7.4806,7.4913,7.4961,7.4934,7.5128,7.5068,7.5077,7.5082,7.5144,7.5164,7.5182,7.4949,7.4948,7.4947,0,0,7.4454,7.4489,7.4574,7.4611,7.4666,7.468,7.47,7.4749,7.4764,7.4859,7.4838,7.4898,7.5004,7.5041,7.5073,7.5215,7.5195,7.5234,7.5308,7.5371,7.5387,7.5402,7.5455,7.5474,7.5245,7.5245,7.5246,0,7.4507,7.4614,7.4618,7.4697,7.4737,7.4715,7.4801,7.4835,7.4905,7.4932,7.4901,7.5037,7.5067,7.5184,7.5219,7.5245,7.5269,7.5229,7.5385,7.54,7.5413,7.5464,7.5484,7.525,7.5249,7.5249,7.5249,0,7.4678,7.4752,7.4813,7.4886,7.4932,7.5013,7.503,7.5075,7.5071,7.5088,7.5186,7.5222,7.5289,7.5316,7.5311,7.5433,7.5415,7.5384,7.5328,7.5438,7.5486,7.5505,7.5256,7.5255,7.5253,7.5252,0,0,7.4835,7.4912,7.4934,7.4969,7.5028,7.5085,7.5165,7.5234,7.5274,7.5323,7.5391,7.5483,7.5456,7.5493,7.5492,7.5547,7.5661,7.551,7.5511,7.5539,7.58,7.5824,7.5846,7.5647,7.5651,7.5654,7.5796,0,7.4967,7.5113,7.512,7.5251,7.5321,7.5302,7.5372,7.5416,7.5434,7.5494,7.5512,7.5579,7.5537,7.556,7.5614,7.5636,7.5713,7.5625,7.571,7.5714,7.5702,7.5871,7.5896,7.6029,7.5815,7.5818,7.582,0,7.5141,7.52,7.534,7.5393,7.5422,7.5485,7.5551,7.5608,7.5657,7.5666,7.571,7.5701,7.5783,7.5723,7.5836,7.5776,7.5811,7.5827,7.5832,7.5842,7.5775,7.5887,7.6071,7.6092,7.5849,7.5847,7.5845,0,7.5245,7.5359,7.5458,7.5487,7.555,7.5596,7.5624,7.567,7.5712,7.5768,7.5795,7.5858,7.5893,7.5942,7.5951,7.5906,7.6065,7.6005,7.6075,7.6075,7.611,7.6108,7.6305,7.6129,7.6129,7.6129,7.6128,0,7.5393,7.548,7.5506,7.5567,7.5664,7.5671,7.5766,7.579,7.5832,7.5896,7.5882,7.5942,7.5949,7.6011,7.6018,7.6112,7.6127,7.6136,7.6138,7.6139,7.6139,7.6164,7.6155,7.6134,7.6133,7.6132,7.6131,0,7.5526,7.5547,7.5655,7.5708,7.5723,7.5792,7.5836,7.5894,7.5911,7.5993,7.6013,7.6039,7.6112,7.6126,7.621,7.6215,7.6327,7.6318,7.6312,7.6312,7.6382,7.6376,7.6604,7.6635,7.6437,7.6439,7.644,0,7.5621,7.5688,7.5749,7.5794,7.5825,7.5895,7.5939,7.5948,7.5994,7.6057,7.6108,7.618,7.6238,7.6355,7.638,7.6445,7.6439,7.6514,7.6448,7.6449,7.6443,7.644,7.6447,7.6527,7.6529,7.6531,7.6532,0,7.5787,7.5795,7.5861,7.5931,7.5985,7.6039,7.6091,7.6127,7.6143,7.6195,7.6272,7.6317,7.6406,7.6478,7.6543,7.6569,7.6554,7.6553,7.6573,7.6576,7.6571,7.6578,7.6349,7.6548,7.6546,7.6545,7.6544,7.6543,7.5906,7.5966,7.602,7.6093,7.6134,7.6184,7.6242,7.6269,7.6333,7.6409,7.6409,7.6493,7.6541,7.6628,7.6659,7.6724,7.67,7.6728,7.6736,7.6743,7.6752,7.656,7.6735,7.6735,7.6734,7.6734,7.6734,0,7.6074,7.6108,7.6176,7.6252,7.631,7.6293,7.635,7.6399,7.6474,7.6522,7.6581,7.6669,7.6739,7.6772,7.6841,7.6886,7.6881,7.6904,7.6902,7.6909,7.6768,7.6745,7.6908,7.6908,7.6908,7.6908,7.6907,7.6907,7.6168,7.627,7.6285,7.6406,7.6439,7.6524,7.6558,7.6604,7.6643,7.6743,7.6803,7.6824,7.6866,7.6939,7.7002,7.7009,7.7036,7.7064,7.7068,7.6936,7.6918,7.6902,7.688,7.7069,7.7069,7.7204,7.7205,7.7206]}]]